www.pogodaiklimat.ru

Погода и климат >> Архив погоды >> Великобритания >> Мамблс


ПОГОДА в Мамблсе

  • Прогноз погоды в Мамблсе
  • Монитор погоды в Мамблсе

АРХИВ ПОГОДЫ в Мамблсе

Время (UTC), дата Ветер
(напр.,м/с)
 
Видим.   Явления Облачность Т
(С)
Тd
(С)
f
(%)
Тe
(С)
Тes
(С)
Комфортность P
(гПа)
Po
(гПа)
Тmin
(С)
Tmax
(С)
R
(мм)
R24
(мм)
S
(см)
04 12.06 С 4 н/о н/о +9.4 +7.8 90 +6 +6 1013.6 1008.4
05 12.06 С 5 н/о н/о +9.5 +7.6 88 +6 +6 1013.3 1008.1
06 12.06 С 5 н/о н/о +9.3 +7.8 90 +6 +6 1013.2 1007.9 +9.2 3
07 12.06 С 5 н/о н/о +9.4 +7.7 89 +6 +6 1012.6 1007.3
08 12.06 С 5 н/о н/о +9.9 +8.0 88 +7 +7 1012.6 1007.3
09 12.06 С 4 н/о н/о +10.9 +8.0 82 +9 +9 1012.3 1007.0
10 12.06 СВ 6 н/о н/о +12.0 +8.6 80 +9 +9 1012.0 1006.8
11 12.06 СВ 6 н/о н/о +13.0 +8.9 76 +11 +11 1011.9 1006.8
12 12.06 СВ 4 н/о н/о +14.6 +9.4 71 +14 +14 1011.2 1006.1 1
13 12.06 СВ 1 н/о н/о +14.1 +9.0 71 +14 +14 1011.3 1006.2
14 12.06 ЮЗ 2 н/о н/о +14.7 +9.6 71 +14 +14 1011.1 1005.9
15 12.06 ЮЗ 5 н/о н/о +13.4 +9.3 76 +12 +12 1010.7 1005.5
16 12.06 ЮЗ 5 н/о н/о +13.2 +9.7 79 +11 +11 1010.6 1005.4
17 12.06 ЮЗ 4 н/о н/о +13.8 +10.5 80 +12 +12 1009.9 1004.7
18 12.06 З 3 н/о н/о +13.6 +10.3 80 +13 +13 1009.6 1004.5 +15.5 1
19 12.06 СЗ 2 н/о н/о +13.7 +10.1 79 +13 +13 1009.4 1004.2
20 12.06 СЗ 4 н/о н/о +12.9 +10.4 85 +11 +11 1009.0 1003.8
21 12.06 СЗ 4 н/о н/о +12.1 +10.9 92 +10 +10 1008.9 1003.8
22 12.06 СЗ 4 н/о н/о +11.8 +11.0 95 +10 +10 1008.6 1003.4
23 12.06 З 3 н/о н/о +11.7 +11.0 95 +10 +10 1008.2 1003.0
00 13.06 З 4 н/о н/о +11.5 +11.0 97 +9 +9 1007.4 1002.3 6
01 13.06 З 4 н/о н/о +11.4 +10.9 97 +9 +9 1006.7 1001.5
02 13.06 З 5 н/о н/о +11.4 +11.0 97 +9 +9 1005.7 1000.5
03 13.06 З 5 н/о н/о +11.4 +10.9 97 +9 +9 1005.0 999.8
04 13.06 З 5 н/о н/о +11.4 +11.0 97 +9 +9 1004.5 999.4
05 13.06 З 4 н/о н/о +11.5 +11.1 97 +9 +9 1004.4 999.2
06 13.06 З 3 н/о н/о +11.7 +11.3 97 +10 +10 1004.1 998.9 +11.3 10
07 13.06 З 4 н/о н/о +12.3 +11.9 97 +10 +10 1004.0 998.8
08 13.06 З 3 н/о н/о +12.6 +12.0 96 +11 +11 1004.0 998.8
09 13.06 З 4 н/о н/о +12.7 +12.0 96 +11 +11 1003.8 998.7
10 13.06 З 3 н/о н/о +13.1 +12.5 96 +12 +12 1003.9 998.8
11 13.06 СЗ 4 н/о н/о +13.3 +11.2 87 +12 +12 1004.1 999.0
12 13.06 СЗ 6 н/о н/о +14.5 +11.0 80 +13 +13 1004.4 999.3 1
13 13.06 СЗ 4 н/о н/о +15.3 +9.8 70 +14 +14 1004.6 999.5
14 13.06 З 6 н/о н/о +14.3 +9.6 73 +12 +12 1005.0 999.9
15 13.06 СЗ 8 н/о н/о +14.1 +9.2 72 +12 +12 1005.4 1000.3
16 13.06 З 6 н/о н/о +15.6 +10.1 70 +14 +14 1005.7 1000.6
17 13.06 СЗ 6 н/о н/о +14.6 +8.7 68 +13 +13 1005.8 1000.7
18 13.06 З 5 н/о н/о +14.1 +8.6 69 +13 +13 1006.4 1001.3 +16.4 1
19 13.06 З 5 н/о н/о +12.8 +8.7 76 +11 +11 1007.1 1001.9
20 13.06 З 6 н/о н/о +12.1 +9.3 83 +9 +9 1007.8 1002.6
21 13.06 З 5 н/о н/о +11.4 +9.8 90 +9 +9 1008.1 1002.9
22 13.06 ЮЗ 6 н/о н/о +11.6 +10.1 91 +9 +9 1008.0 1002.8
23 13.06 ЮЗ 7 н/о н/о +11.9 +10.7 92 +9 +9 1007.8 1002.6
00 14.06 ЮЗ 9 н/о н/о +11.8 +10.7 93 +8 +8 1007.3 1002.1 0.6
01 14.06 Ю 9 н/о н/о +12.1 +10.9 92 +8 +8 1006.7 1001.5
02 14.06 Ю 10
{13}
н/о н/о +11.9 +11.4 97 +8 +8 1006.2 1001.0
03 14.06 З 4
{13}
н/о н/о +11.3 +10.9 97 +9 +9 1006.2 1001.0
04 14.06 СЗ 4 н/о н/о +10.3 +9.9 97 +8 +8 1006.3 1001.2
05 14.06 СЗ 3 н/о н/о +10.1 +9.7 97 +8 +8 1006.9 1001.7
06 14.06 З 1 н/о н/о +10.3 +9.9 97 +11 +11 1007.2 1002.0 +10.1 10
07 14.06 З 2 н/о н/о +10.8 +10.3 97 +9 +9 1007.7 1002.5
08 14.06 ЮЗ 4 н/о н/о +11.1 +10.4 95 +9 +9 1008.1 1002.9
09 14.06 ЮЗ 5 н/о н/о +12.0 +10.7 92 +9 +9 1008.5 1003.3
10 14.06 Ю 4 н/о н/о +12.8 +10.3 85 +11 +11 1008.8 1003.6
11 14.06 Ю 4 н/о н/о +13.7 +10.5 81 +12 +12 1008.9 1003.8
12 14.06 Ю 4 н/о н/о +14.0 +8.4 69 +13 +13 1008.9 1003.7 0.4
13 14.06 Ю 3 н/о н/о +15.0 +8.7 66 +14 +14 1009.0 1003.8
14 14.06 ЮЗ 5 н/о н/о +14.8 +10.0 73 +13 +13 1009.3 1004.1
15 14.06 ЮЗ 7 н/о н/о +15.0 +11.3 79 +13 +13 1009.4 1004.2
16 14.06 ЮЗ 7 н/о н/о +14.0 +10.8 81 +12 +12 1009.6 1004.4
17 14.06 ЮЗ 8 н/о н/о +14.3 +10.5 78 +12 +12 1009.6 1004.4
18 14.06 ЮЗ 6 н/о н/о +13.8 +9.7 76 +12 +12 1009.7 1004.5 +15.6 0.4
19 14.06 Ю 5 н/о н/о +13.5 +10.4 82 +12 +12 1009.8 1004.7
20 14.06 Ю 7 н/о н/о +12.9 +11.6 92 +10 +10 1009.8 1004.7
21 14.06 Ю 7 н/о н/о +11.9 +10.4 91 +9 +9 1010.0 1004.8
22 14.06 Ю 6 н/о н/о +12.9 +10.7 86 +10 +10 1009.8 1004.6
23 14.06 Ю 10
{13}
н/о н/о +13.0 +9.5 79 +10 +10 1009.6 1004.5
00 15.06 Ю 10 н/о н/о +13.0 +9.5 79 +10 +10 1009.6 1004.4 2
01 15.06 Ю 10
{13}
н/о н/о +12.9 +9.5 80 +10 +10 1009.1 1004.0
02 15.06 Ю 9 н/о н/о +13.1 +9.5 79 +10 +10 1008.8 1003.7
03 15.06 Ю 11
{13}
н/о н/о +13.3 +10.0 80 +10 +10 1008.5 1003.4
04 15.06 Ю 15
{20}
н/о н/о +13.1 +9.8 80 +9 +9 1008.0 1002.8
05 15.06 Ю 13
{19}
н/о н/о +12.9 +10.5 85 +9 +9 1007.9 1002.7
06 15.06 Ю 14
{19}
н/о н/о +12.2 +10.7 91 +8 +8 1008.2 1003.0 +11.7 2
07 15.06 ЮЗ 8
{13}
н/о н/о +12.3 +8.5 78 +9 +9 1009.1 1003.9
08 15.06 ЮЗ 7 н/о н/о +12.7 +8.3 75 +10 +10 1009.9 1004.7
09 15.06 ЮЗ 5 н/о н/о +13.2 +8.9 75 +11 +11 1010.4 1005.2
10 15.06 ЮЗ 4 н/о н/о +13.8 +9.3 74 +12 +12 1010.6 1005.5
11 15.06 ЮЗ 7 н/о н/о +13.9 +9.4 74 +12 +12 1011.1 1005.9
12 15.06 ЮЗ 9 н/о н/о +14.9 +9.6 71 +13 +13 1011.5 1006.4
13 15.06 ЮЗ 8 н/о н/о +14.4 +8.6 68 +12 +12 1011.8 1006.6
14 15.06 ЮЗ 8 н/о н/о +15.4 +10.0 70 +14 +14 1011.9 1006.8
15 15.06 ЮЗ 8 н/о н/о +14.9 +8.9 67 +13 +13 1012.1 1006.9
16 15.06 ЮЗ 9 н/о н/о +14.5 +9.1 70 +12 +12 1012.4 1007.2
17 15.06 ЮЗ 9 н/о н/о +14.1 +9.4 73 +12 +12 1012.7 1007.5
18 15.06 ЮЗ 8 н/о н/о +14.0 +9.1 72 +12 +12 1012.6 1007.4 +15.9
19 15.06 ЮЗ 8 н/о н/о +13.6 +9.4 76 +11 +11 1012.7 1007.5
20 15.06 ЮЗ 7 н/о н/о +12.8 +9.2 79 +10 +10 1012.9 1007.7
21 15.06 ЮЗ 8 н/о н/о +13.2 +10.2 82 +10 +10 1013.2 1008.0
22 15.06 ЮЗ 9 н/о н/о +13.2 +10.2 82 +10 +10 1013.4 1008.2
23 15.06 Ю 8 н/о н/о +13.2 +10.6 84 +10 +10 1013.5 1008.4
00 16.06 Ю 10 н/о н/о +12.7 +10.7 88 +9 +9 1013.5 1008.3 0.2
01 16.06 Ю 9 н/о н/о +12.8 +10.8 88 +10 +10 1013.4 1008.2
02 16.06 Ю 9 н/о н/о +12.8 +10.8 88 +10 +10 1013.0 1007.8
03 16.06 Ю 9 н/о н/о +12.7 +10.9 89 +9 +9 1012.9 1007.7
04 16.06 Ю 8 н/о н/о +12.8 +11.0 89 +10 +10 1012.7 1007.5
05 16.06 Ю 9 н/о н/о +13.0 +11.4 90 +10 +10 1012.6 1007.4
06 16.06 Ю 8 н/о н/о +12.9 +11.8 93 +10 +10 1012.6 1007.4 +12.4 0.8
07 16.06 ЮЗ 11
{13}
н/о н/о +13.7 +12.5 92 +10 +10 1013.2 1008.0
08 16.06 Ю 11
{13}
н/о н/о +13.9 +12.7 92 +11 +11 1013.5 1008.4
09 16.06 Ю 11
{13}
н/о н/о +13.9 +12.6 92 +11 +11 1013.6 1008.4
10 16.06 ЮЗ 13
{16}
н/о н/о +13.7 +13.0 96 +10 +10 1013.9 1008.7
11 16.06 ЮЗ 12
{16}
н/о н/о +15.2 +13.3 88 +12 +12 1014.5 1009.4
12 16.06 ЮЗ 11
{14}
н/о н/о +15.9 +12.9 82 +14 +14 1015.0 1009.8 1
13 16.06 ЮЗ 10
{13}
н/о н/о +15.0 +12.5 85 +12 +12 1015.4 1010.2
14 16.06 ЮЗ 10 н/о н/о +15.3 +12.3 82 +13 +13 1015.3 1010.1
15 16.06 ЮЗ 11
{15}
н/о н/о +14.7 +12.7 88 +12 +12 1015.3 1010.1
16 16.06 ЮЗ 12
{15}
н/о н/о +13.7 +12.8 94 +10 +10 1015.2 1010.0
17 16.06 ЮЗ 12
{14}
н/о н/о +14.2 +12.9 92 +11 +11 1015.1 1009.9
18 16.06 ЮЗ 13
{16}
н/о н/о +14.1 +12.5 90 +11 +11 1014.9 1009.7 +16.4 2
19 16.06 ЮЗ 12
{16}
н/о н/о +14.3 +12.5 89 +11 +11 1015.3 1010.1
20 16.06 ЮЗ 12
{14}
н/о н/о +14.0 +12.4 90 +11 +11 1015.1 1009.9
21 16.06 Ю 10
{16}
н/о н/о +13.7 +13.0 96 +11 +11 1015.5 1010.3
22 16.06 Ю 11
{15}
н/о н/о +13.7 +12.8 94 +10 +10 1015.7 1010.5
23 16.06 Ю 11
{14}
н/о н/о +14.2 +12.5 90 +11 +11 1015.6 1010.4
00 17.06 Ю 12
{16}
н/о н/о +13.8 +12.3 91 +10 +10 1015.4 1010.2
01 17.06 Ю 13
{15}
н/о н/о +14.1 +12.2 88 +11 +11 1015.3 1010.1
02 17.06 ЮЗ 13
{16}
н/о н/о +14.1 +11.9 87 +11 +11 1015.1 1009.9
03 17.06 ЮЗ 14
{16}
н/о н/о +14.0 +12.0 88 +11 +11 1014.9 1009.8
04 17.06 ЮЗ 12
{15}
н/о н/о +14.1 +12.3 89 +11 +11 1015.0 1009.8
05 17.06 ЮЗ 13
{17}
н/о н/о +14.1 +12.5 90 +11 +11 1015.1 1010.0
06 17.06 ЮЗ 14
{17}
н/о н/о +13.5 +12.6 94 +10 +10 1015.3 1010.1 +13.5
07 17.06 ЮЗ 13
{16}
н/о н/о +13.6 +12.6 94 +10 +10 1015.6 1010.5
08 17.06 З 7
{14}
н/о н/о +13.0 +12.3 96 +10 +10 1016.3 1011.1
09 17.06 Ю 9 н/о н/о +14.8 +12.8 88 +12 +12 1016.3 1011.1
10 17.06 ЮЗ 12
{15}
н/о н/о +14.2 +12.9 92 +11 +11 1016.4 1011.2
11 17.06 ЮЗ 10
{14}
н/о н/о +14.8 +13.6 93 +12 +12 1016.6 1011.4
12 17.06 ЮЗ 11
{13}
н/о н/о +15.9 +13.0 83 +14 +14 1016.5 1011.4 0.4
13 17.06 ЮЗ 11
{13}
н/о н/о +16.5 +13.0 80 +15 +15 1016.5 1011.4
14 17.06 ЮЗ 9
{13}
н/о н/о +16.5 +13.3 81 +15 +15 1016.7 1011.6
15 17.06 ЮЗ 9 н/о н/о +15.7 +13.1 85 +14 +14 1016.6 1011.4
16 17.06 ЮЗ 8 н/о н/о +16.8 +13.7 82 +15 +15 1016.5 1011.4
17 17.06 ЮЗ 7 н/о н/о +14.9 +12.9 88 +13 +13 1016.6 1011.5
18 17.06 З 6 н/о н/о +14.0 +12.3 89 +12 +12 1016.4 1011.3 +17.2 0.4
19 17.06 ЮЗ 5 н/о н/о +13.7 +12.2 91 +12 +12 1016.4 1011.2
20 17.06 ЮЗ 4 н/о н/о +13.8 +12.4 91 +12 +12 1016.6 1011.4
21 17.06 Ю 2 н/о н/о +13.8 +12.6 92 +13 +13 1016.8 1011.7
22 17.06 Ю 5 н/о н/о +13.9 +12.9 94 +12 +12 1016.9 1011.7
23 17.06 ЮЗ 6 н/о н/о +13.9 +12.9 94 +12 +12 1016.7 1011.5
00 18.06 ЮЗ 5 н/о н/о +13.9 +12.8 93 +12 +12 1016.6 1011.4
01 18.06 ЮЗ 5 н/о н/о +14.0 +13.1 94 +12 +12 1016.1 1010.9
02 18.06 ЮЗ 5 н/о н/о +13.7 +12.8 94 +12 +12 1015.9 1010.7
03 18.06 Ю 4 н/о н/о +13.8 +12.8 94 +12 +12 1015.6 1010.4
04 18.06 Ю 4 н/о н/о +13.8 +11.9 88 +12 +12 1015.4 1010.2
05 18.06 Ю 4 н/о н/о +13.9 +12.1 89 +12 +12 1015.3 1010.2
06 18.06 Ю 3 н/о н/о +13.9 +11.8 87 +13 +13 1015.3 1010.1 +13.4
07 18.06 Ю 3 н/о н/о +14.2 +11.9 86 +13 +13 1015.2 1010.0
08 18.06 Ю 3 н/о н/о +14.5 +11.7 83 +14 +14 1015.3 1010.1
09 18.06 Ю 3 н/о н/о +14.6 +12.0 84 +14 +14 1015.3 1010.1
10 18.06 Ю 3 н/о н/о +15.0 +11.9 82 +14 +14 1015.1 1009.9
11 18.06 В 1 н/о н/о +16.0 +12.0 77 +17 +17 1014.5 1009.3
12 18.06 Ю 2 н/о н/о +15.3 +11.4 78 +15 +15 1014.3 1009.2
13 18.06 Ю 3 н/о н/о +15.8 +12.1 79 +15 +15 1014.1 1008.9
14 18.06 ЮЗ 2 н/о н/о +15.3 +12.7 84 +15 +15 1013.7 1008.5
15 18.06 ЮВ 3 н/о н/о +14.9 +12.2 84 +14 +14 1013.5 1008.4
16 18.06 Ю 3 н/о н/о +14.9 +11.8 82 +14 +14 1013.1 1008.0
17 18.06 ЮЗ 1 н/о н/о +15.4 +11.7 79 +16 +16 1012.8 1007.7
18 18.06 ЮВ 2 н/о н/о +15.0 +12.0 82 +15 +15 1012.6 1007.4 +16.9
19 18.06 ЮВ 1 н/о н/о +14.7 +12.0 84 +15 +15 1012.3 1007.2
20 18.06 Ю 1 н/о н/о +14.4 +12.1 86 +15 +15 1012.2 1007.1
21 18.06 З 1 н/о н/о +14.2 +12.7 91 +15 +15 1012.2 1007.1
22 18.06 С 2 н/о н/о +13.6 +12.2 91 +13 +13 1011.8 1006.7
23 18.06 С 3 н/о н/о +13.3 +12.3 94 +12 +12 1011.4 1006.3
00 19.06 С 3 н/о н/о +13.3 +12.5 95 +12 +12 1010.8 1005.7 2
01 19.06 СЗ 3 н/о н/о +13.3 +12.6 96 +12 +12 1010.3 1005.2
03 19.06 С 3 н/о н/о +12.9 +11.5 91 +12 +12 1009.5 1004.3
04 19.06 СЗ 4 н/о н/о +13.0 +11.8 92 +11 +11 1009.5 1004.3

 

Местоположение метеостанции Мамблс (Великобритания): широта 51.57 долгота -3.98 высота над уровнем моря 32 м.

В архиве по умолчанию представлена погода в Мамблсе за последнюю неделю. Архивные данные за месяц целиком и за предыдущие месяцы, начиная с января 2011 года, Вы можете получить, выбрав интересующий диапазон дат из раскрывающегося списка и нажав кнопку "Ввод!".


*Определитесь, кто Вы:
робот инопланетянин человек

Внимание! Время в таблицах - всемирное. Для получения местного времени необходимо прибавить поправку, которая равна 0 ч.

Смотрите также архив погоды в соседних городах и на ближайших метеорологических станциях:

Погода в Пембри Сэндс (Великобритания) (32 км)
Погода в Сейнт Атан (Великобритания) (43 км)
Погода на Базе Chivenor (Великобритания) (56 км)
Погода в Лискомбе (Великобритания) (61 км)
Погода в Сеннибридже (Великобритания) (61 км)
Погода в Аберпорте (Великобритания) (74 км)
Погода в Милфорд-Хейвен (Великобритания) (75 км)
Погода в Троскоеде (Великобритания) (87 км)
Погода в Данкесуэлле (Великобритания) (94 км)
Погода в Филтоне (Великобритания) (97 км)

Пояснения к столбцам:

Ветер - указаны скорость ветра в м/с - средняя за 10 мин, порывы в срок и между сроками (в фигурных скобках) и направление, откуда дует ветер: С - северный, СВ - северо-восточный, В - восточный, ЮВ - юго-восточный, Ю - южный, ЮЗ - юго-западный, З - западный, СЗ - северо-западный.
Видимость - горизонтальная дальность видимости в метрах или километрах. При видимости от 1 до 10 км при отсутствии осадков обычно наблюдается дымка, при ухудшении видимости до 1 км и менее - туман. В сухую погоду видимость может ухудшаться дымом, пылью или мглою.
Явления - указаны атмосферные явления, наблюдавшиеся в срок или в последний час перед сроком; фигурными скобками обозначены явления, наблюдавшиеся между сроками (за 1-3 часа до срока); квадратными скобками обозначены град или гололедные отложения с указанием их диаметра в мм.
Облачность - указаны через наклонную черту общая и нижняя облачность в баллах и высота нижней границы облаков в метрах; квадратными скобками обозначены формы облаков: Ci - перистые, Cs - перисто-слоистые, Cc - перисто-кучевые, Ac - высококучевые, As - высокослоистые, Sc - слоисто-кучевые, Ns - слоисто-дождевые, Cu - кучевые, Cb - кучево-дождевые. Подробнее классификацию облаков см. в Атласе облаков (PDF).
T - Температура воздуха - температура, измеренная на высоте 2 м над землей.
Td - Температура точки росы - температура, при понижении до которой содержащийся в воздухе водяной пар достигнет насыщения.
f - Относительная влажность воздуха - влажноcть воздуха, измеренная на высоте 2 м над землей.
Te - Эффективная температура - температура, которую ощущает одетый по сезону человек в тени. Характеристика душности погоды. При расчете учитывается влияние влажности воздуха и скорости ветра на теплоощущения человека.
Tes - Эффективная температура на солнце - температура, которую ощущает человек, с поправкой на солнечный нагрев. Характеристика знойности погоды. Зависит от высоты солнца над горизонтом, облачности и скорости ветра. Ночью, в пасмурную погоду, а также при ветре 12 м/с и более поправка равна нулю.
P - Атмосферное давление - приведенное к уровню моря атмосферное давление.
Po - Атмосферное давление - измеренное на уровне метеостанции атмосферное давление.
Tmin - Минимальная температура - минимум температуры воздуха на высоте 2 м над землей.
Tmax - Максимальная температура - максимум температуры воздуха на высоте 2 м над землей.
R - Количество осадков - Количество выпавших осадков за период времени, мм. При наведении курсора мыши на число - период времени, за который выпало указанное количество осадков.
R24 - Количество осадков - Количество выпавших осадков за 24 часа, мм.
S - Снежный покров - Высота снежного покрова, см. При наведении курсора мыши на число - состояние снежного покрова и степень покрытия местности в баллах.